Regional Weather Roundup
Issued by NWS

Home | Current Version | Previous Version | Graphics & Text | Print | Product List | Glossary On
Versions: 1 2 3 4 5 6 7 8 9 10 11 12 13 14 15 16 17 18 19 20 21 22 23 24 25 26 27 28 29 30 31 32 33 34 35 36 37 38 39 40 41 42 43 44 45 46 47 48 49 50
086
ASUS44 KJAN 150810
RWRMS

MISSISSIPPI HOURLY WEATHER ROUNDUP
NATIONAL WEATHER SERVICE JACKSON MS
300 AM CDT MON SEP 15 2014

NOTE: "FAIR: INDICATES FEW OR NO CLOUDS BELOW 12,000 FEET WITH NO
SIGNIFICANT WEATHER AND/OR OBSTRUCTIONS TO VISIBILITY.

MSZ001>002-007>008-010>013-018>021-025>028-034>036-150900-
NORTHWEST MISSISSIPPI

CITY           SKY/WX    TMP DP  RH WIND       PRES   REMARKS
CLARKSDALE       N/A     63  63 100 CALM      30.16F
CLEVELAND      FAIR      64  63  94 NE3       30.14S
GREENWOOD      PTCLDY    66  63  90 NE5       30.13F
GREENVILLE     PTCLDY    66  61  84 CALM      30.14S
GRENADA        FAIR      63  61  94 CALM      30.14F
OLIVE BRANCH   CLEAR     61  61 100 CALM      30.16F
OXFORD         FAIR      63  59  88 CALM      30.17S
TUNICA         PTSUNNY   63  61  94 CALM      30.16S
$$

MSZ003>006-009-014>017-022>024-029>033-037>039-150900-
NORTHEAST MISSISSIPPI

CITY           SKY/WX    TMP DP  RH WIND       PRES   REMARKS
COLUMBUS AFB   CLEAR     66  62  89 NW3       30.13F
CORINTH          N/A     59  57  94 CALM      30.15F
GOLDN TRIANGLE CLEAR     66  61  82 N5        30.13F
STARKVILLE     FAIR      64  61  88 CALM      30.13F
TUPELO         PTCLDY    64  60  87 NE6       30.14F
$$

MSZ040-058-150900-
CENTRAL MISSISSIPPI

CITY           SKY/WX    TMP DP  RH WIND       PRES   REMARKS
JACKSON INTL   CLEAR     70  68  93 CALM      30.12S
JACKSON HAWKNS CLEAR     73  67  81 CALM      30.12F
MERIDIAN KEY   CLEAR     69  65  86 N5        30.11F
MERIDIAN NAS   CLEAR     70  65  84 NW5       30.11F
RAYMOND        FAIR      66  63  88 CALM      30.12S FOG
VICKSBURG      CLEAR     70  66  87 N5        30.12S
$$

MSZ059>079-150900-
SOUTH MISSISSIPPI

CITY           SKY/WX    TMP DP  RH WIND       PRES   REMARKS
BROOKHAVEN     FAIR      70  70 100 CALM      30.13S FOG
HATTIESBURG    PTCLDY    74  72  93 CALM      30.10S
MCCOMB         CLEAR     74  69  85 N3        30.10F
NATCHEZ        MOCLDY    70  66  88 CALM      30.12S
PINE BELT      CLEAR    N/A N/A N/A N5        30.11S
$$

MSZ080>082-150900-
COASTAL MISSISSIPPI

CITY           SKY/WX    TMP DP  RH WIND       PRES   REMARKS
BILOXI         PTCLDY    76  74  93 NE6       30.07S
PASCAGOULA     PTCLDY    73  72  96 CALM      30.07F
GULFPORT       CLEAR     76  73  91 CALM      30.07S
$$



USA.gov is the U.S. government's official web portal to all federal, state and local government web resources and services.